Weather History for Marianna, FL

Change the Weather History Date:

Monday, July 22, 2013

  Actual Average Record
Temperature  
Mean Temperature 78 °F 82 °F  
Max Temperature 83 °F 92 °F 100 °F (2000)
Min Temperature 72 °F 73 °F 69 °F (2002)
Degree Days  
Heating Degree Days 0    
Month to date heating degree days 0  
Since 1 June heating degree days 0  
Since 1 July heating degree days 0  
Cooling Degree Days 13    
Month to date cooling degree days 316  
Year to date cooling degree days 1201  
Since 1 June cooling degree days 765  
Growing Degree Days 27 (Base 50)    
Moisture  
Dew Point 73 °F    
Average Humidity 87    
Maximum Humidity 100    
Minimum Humidity 74    
Precipitation  
Precipitation 0.46 in 0.14 in 0.84 in (2006)
Month to date precipitation 9.14 3.78  
Year to date precipitation 34.14 31.57  
Sea Level Pressure  
Sea Level Pressure 30.06 in    
Wind  
Wind Speed 7 mph (SW)    
Max Wind Speed 20 mph    
Max Gust Speed 24 mph    
Visibility 8 miles    
Events Rain , Thunderstorm    
T = Trace of Precipitation, MM = Missing Value Source: NWS Daily Summary

Daily Weather History Graph

Daily Weather History Graph

Search for Another Location

Airport:

Trip Planner

Search our weather history database for the weather conditions in past years. The results will help you decide how hot, cold, wet, or windy it might be!

Date:

Astronomy

Jul. 22, 2013 Rise Set
Actual Time 5:52 AM CDT 7:41 PM CDT
Civil Twilight 5:25 AM CDT 8:08 PM CDT
Nautical Twilight 4:53 AM CDT 8:40 PM CDT
Astronomical Twilight 4:18 AM CDT 9:15 PM CDT
Moon 7:33 PM CDT (7/22) 5:43 AM CDT (7/22)
Length of Visible Light 14h 43m
Length of Day
13h 49m
Full, 100% of the Moon is Illuminated
Jul 22
Full
Jul 22
Full
Jul 29
Last Quarter
Aug 6
New
Aug 14
First Quarter

Hourly Weather History & Observations

Time (CDT) Temp. Heat Index Dew Point Humidity Pressure Visibility Wind Dir Wind Speed Gust Speed Precip Events Conditions
12:53 AM 73.9 °F - 72.0 °F 93% 30.06 in 10.0 mi SSW 5.8 mph - N/A   Clear
1:53 AM 73.9 °F - 72.0 °F 93% 30.04 in 10.0 mi SSW 3.5 mph - N/A   Clear
2:53 AM 73.9 °F - 72.0 °F 93% 30.02 in 10.0 mi South 4.6 mph - N/A   Clear
3:53 AM 73.0 °F - 71.1 °F 93% 30.02 in 10.0 mi Calm Calm - N/A   Clear
4:53 AM 72.0 °F - 71.1 °F 97% 30.03 in 10.0 mi South 3.5 mph - N/A   Clear
5:49 AM 73.4 °F - 71.6 °F 94% 30.05 in 10.0 mi SSW 3.5 mph - N/A   Mostly Cloudy
5:53 AM 73.0 °F - 71.1 °F 93% 30.05 in 10.0 mi SSW 3.5 mph - N/A   Mostly Cloudy
6:00 AM 73.4 °F - 71.6 °F 94% 30.06 in 10.0 mi South 3.5 mph - N/A   Scattered Clouds
6:53 AM 75.0 °F - 73.0 °F 94% 30.06 in 8.0 mi WSW 4.6 mph - 0.01 in   Scattered Clouds
7:01 AM 73.4 °F - 71.6 °F 94% 30.06 in 2.0 mi SW 4.6 mph - 0.05 in Rain Rain
7:11 AM 75.2 °F - 71.6 °F 89% 30.06 in 10.0 mi WSW 8.1 mph - 0.05 in Rain Light Rain
7:53 AM 73.9 °F - 72.0 °F 93% 30.06 in 7.0 mi SSW 6.9 mph - 0.11 in Rain Light Rain
8:21 AM 75.2 °F - 73.4 °F 94% 30.09 in 6.0 mi SSW 9.2 mph - 0.00 in Rain , Thunderstorm Rain
8:24 AM 75.2 °F - 73.4 °F 94% 30.09 in 1.8 mi SSW 9.2 mph - 0.08 in Rain , Thunderstorm Heavy Rain
8:30 AM 75.2 °F - 73.4 °F 94% 30.09 in 1.5 mi SW 11.5 mph 17.3 mph 0.09 in Rain , Thunderstorm Light Rain
8:33 AM 75.2 °F - 73.4 °F 94% 30.09 in 2.5 mi West 9.2 mph 17.3 mph 0.10 in Rain , Thunderstorm Light Rain
8:35 AM 75.2 °F - 73.4 °F 94% 30.09 in 5.0 mi West 8.1 mph 17.3 mph 0.10 in Rain , Thunderstorm Light Rain
8:53 AM 73.9 °F - 73.0 °F 97% 30.09 in 10.0 mi SSW 5.8 mph - 0.10 in Rain , Thunderstorm Light Rain
9:12 AM 75.2 °F - 73.4 °F 94% 30.09 in 10.0 mi South 3.5 mph - 0.00 in   Scattered Clouds
9:53 AM 75.9 °F - 73.0 °F 91% 30.08 in 10.0 mi South 6.9 mph - 0.00 in   Clear
10:53 AM 81.0 °F 87.3 °F 75.9 °F 85% 30.08 in 10.0 mi South 6.9 mph - N/A   Clear
11:40 AM 77.0 °F - 73.4 °F 89% 30.09 in 10.0 mi SW 12.7 mph - 0.00 in Rain Light Rain
11:53 AM 75.9 °F - 73.0 °F 91% 30.09 in 9.0 mi West 8.1 mph - 0.01 in Rain Light Rain
12:00 PM 75.2 °F - 71.6 °F 89% 30.08 in 6.0 mi Calm Calm - 0.00 in Rain Rain
12:15 PM 75.2 °F - 73.4 °F 94% 30.08 in 10.0 mi SSW 4.6 mph - 0.01 in Rain , Thunderstorm Light Rain
12:31 PM 75.2 °F - 73.4 °F 94% 30.07 in 10.0 mi South 3.5 mph - 0.01 in   Partly Cloudy
12:53 PM 79.0 °F - 73.9 °F 84% 30.06 in 10.0 mi South 6.9 mph - 0.01 in   Clear
1:53 PM 82.0 °F 87.4 °F 73.0 °F 74% 30.04 in 10.0 mi South 10.4 mph - N/A   Scattered Clouds
2:42 PM 78.8 °F - 73.4 °F 83% 30.04 in 9.0 mi SW 18.4 mph 24.2 mph 0.01 in Rain Light Rain
2:53 PM 75.9 °F - 73.9 °F 94% 30.05 in 3.0 mi SW 11.5 mph 19.6 mph 0.04 in Rain Heavy Rain
3:18 PM 75.2 °F - 73.4 °F 94% 30.07 in 8.0 mi WSW 9.2 mph - 0.02 in Rain Light Rain
3:53 PM 75.0 °F - 73.0 °F 94% 30.08 in 2.5 mi SW 9.2 mph - 0.09 in Rain Heavy Rain
4:04 PM 75.2 °F - 73.4 °F 94% 30.07 in 10.0 mi SW 11.5 mph - 0.01 in Rain Light Rain
4:31 PM 75.2 °F - 73.4 °F 94% 30.07 in 5.0 mi WSW 8.1 mph - 0.05 in Rain , Thunderstorm Rain
4:46 PM 75.2 °F - 73.4 °F 94% 30.06 in 10.0 mi SW 6.9 mph - 0.06 in Rain Light Rain
4:53 PM 75.0 °F - 73.0 °F 94% 30.05 in 9.0 mi SW 6.9 mph - 0.07 in Rain Light Rain
5:40 PM 75.2 °F - 73.4 °F 94% 30.03 in 10.0 mi SSW 8.1 mph - 0.02 in Rain Light Rain
5:53 PM 75.0 °F - 73.0 °F 94% 30.02 in 10.0 mi SSW 9.2 mph - 0.02 in Rain Light Rain
6:53 PM 75.0 °F - 73.0 °F 94% 30.02 in 10.0 mi WSW 4.6 mph - 0.00 in   Clear
7:03 PM 75.2 °F - 73.4 °F 94% 30.02 in 10.0 mi WSW 4.6 mph - N/A   Partly Cloudy
7:53 PM 73.9 °F - 73.0 °F 97% 30.03 in 10.0 mi SW 4.6 mph - N/A   Partly Cloudy
8:38 PM 75.2 °F - 73.4 °F 94% 30.04 in 10.0 mi SW 5.8 mph - N/A   Overcast
8:43 PM 75.2 °F - 73.4 °F 94% 30.05 in 10.0 mi SW 6.9 mph - N/A   Overcast
8:53 PM 75.0 °F - 73.9 °F 96% 30.04 in 10.0 mi SW 9.2 mph - N/A   Overcast
9:16 PM 75.2 °F - 73.4 °F 94% 30.03 in 10.0 mi SW 8.1 mph - N/A   Mostly Cloudy
9:53 PM 75.0 °F - 73.0 °F 94% 30.02 in 10.0 mi WSW 9.2 mph - 0.00 in Rain Light Rain
10:53 PM 73.9 °F - 72.0 °F 93% 30.00 in 10.0 mi SW 6.9 mph - 0.00 in   Partly Cloudy
11:53 PM 73.9 °F - 72.0 °F 93% 30.01 in 10.0 mi WSW 6.9 mph - N/A   Scattered Clouds